When you browse on this site, cookies collect data to enhance your experience and personalize the content and advertising you see.
Visit our Privacy Policy to learn more. By continuing to use the site, you agree to this use of cookies and data.
  • In Portugal
  • List of Countries
  • For 7 days
  • Water Temperature
  • Satellite Maps
  • Weather Map
  • Weather Widgets
  • user-avatar
    Login

    Hourly Weather Glinno

    Today, 21 March, Thursday

    Time Temperature Precipitation Wind Pressure Humidity
    00:00 +1°C° 0 mm 2 mps 723 mmHg 68%
    01:00 +1°C° 0 mm 2 mps 723 mmHg 68%
    02:00 +1°C° 0 mm 2 mps 723 mmHg 69%
    03:00 +1°C° 0 mm 2 mps 723 mmHg 69%
    04:00 +1°C° 0 mm 2 mps 723 mmHg 69%
    05:00 +1°C° 0 mm 2 mps 723 mmHg 70%
    06:00 +2°C° 0 mm 2 mps 723 mmHg 70%
    07:00 +2°C° 0 mm 2 mps 724 mmHg 71%
    08:00 +4°C° 0 mm 2 mps 724 mmHg 67%
    09:00 +6°C° 0 mm 2 mps 724 mmHg 64%
    10:00 +8°C° 0 mm 2 mps 725 mmHg 60%
    11:00 +9°C° 0 mm 2 mps 725 mmHg 59%
    12:00 +10°C° 0 mm 2 mps 725 mmHg 59%
    13:00 +12°C° 0 mm 2 mps 725 mmHg 58%
    14:00 +12°C° 0 mm 2 mps 724 mmHg 59%
    15:00 +12°C° 0 mm 2 mps 724 mmHg 59%
    16:00 +12°C° 0 mm 2 mps 724 mmHg 60%
    17:00 +11°C° 0 mm 1 mps 723 mmHg 66%
    18:00 +10°C° 0 mm 1 mps 723 mmHg 72%
    19:00 +8°C° 0 mm 1 mps 723 mmHg 78%
    20:00 +8°C° 0 mm 1 mps 723 mmHg 80%
    21:00 +7°C° 0 mm 1 mps 723 mmHg 83%
    22:00 +7°C° 0 mm 1 mps 723 mmHg 85%
    23:00 +6°C° 0 mm 1 mps 723 mmHg 86%

    Tomorrow, 22 March, Friday

    Time Temperature Precipitation Wind Pressure Humidity
    00:00 +6°C° 0 mm 1 mps 723 mmHg 87%
    01:00 +6°C° 0 mm 1 mps 723 mmHg 87%
    02:00 +6°C° 0 mm 1 mps 723 mmHg 88%
    03:00 +6°C° 0 mm 1 mps 723 mmHg 88%
    04:00 +6°C° 0 mm 1 mps 723 mmHg 88%
    05:00 +6°C° 0 mm 1 mps 723 mmHg 88%
    06:00 +6°C° 0 mm 1 mps 723 mmHg 87%
    07:00 +6°C° 0 mm 1 mps 723 mmHg 87%
    08:00 +8°C° 0 mm 0 mps 723 mmHg 80%
    09:00 +10°C° 0 mm 0 mps 723 mmHg 74%
    10:00 +12°C° 0 mm 0 mps 724 mmHg 68%
    11:00 +13°C° 0 mm 1 mps 724 mmHg 64%
    12:00 +14°C° 0 mm 1 mps 723 mmHg 61%
    13:00 +15°C° 0 mm 2 mps 723 mmHg 57%
    14:00 +15°C° 0 mm 2 mps 723 mmHg 57%
    15:00 +15°C° 0 mm 2 mps 722 mmHg 57%
    16:00 +15°C° 0 mm 2 mps 722 mmHg 57%
    17:00 +13°C° 0 mm 1 mps 722 mmHg 64%
    18:00 +12°C° 0 mm 1 mps 721 mmHg 71%
    19:00 +10°C° 0 mm 1 mps 721 mmHg 78%
    20:00 +10°C° 0 mm 1 mps 721 mmHg 80%
    21:00 +9°C° 0 mm 1 mps 721 mmHg 82%
    22:00 +9°C° 0 mm 1 mps 721 mmHg 85%
    23:00 +8°C° 0 mm 1 mps 721 mmHg 85%

    Day after tomorrow, 23 March, Saturday

    Time Temperature Precipitation Wind Pressure Humidity
    00:00 +8°C° 0 mm 1 mps 721 mmHg 85%
    01:00 +8°C° 0 mm 1 mps 720 mmHg 86%
    02:00 +8°C° 0 mm 1 mps 720 mmHg 86%
    03:00 +7°C° 0 mm 1 mps 720 mmHg 86%
    04:00 +6°C° 0 mm 2 mps 719 mmHg 86%
    05:00 +6°C° 0 mm 2 mps 719 mmHg 85%
    06:00 +7°C° 0 mm 2 mps 719 mmHg 83%
    07:00 +7°C° 0 mm 2 mps 719 mmHg 82%
    08:00 +9°C° 0 mm 2 mps 719 mmHg 74%
    09:00 +12°C° 0 mm 2 mps 719 mmHg 66%
    10:00 +14°C° 0 mm 2 mps 720 mmHg 58%
    11:00 +15°C° 0 mm 2 mps 719 mmHg 54%
    12:00 +16°C° 0 mm 2 mps 719 mmHg 51%
    13:00 +17°C° 0 mm 2 mps 719 mmHg 48%
    14:00 +17°C° 0 mm 2 mps 719 mmHg 48%
    15:00 +17°C° 0 mm 2 mps 718 mmHg 48%
    16:00 +17°C° 0 mm 2 mps 718 mmHg 48%
    17:00 +16°C° 0 mm 1 mps 718 mmHg 54%
    18:00 +14°C° 0 mm 1 mps 718 mmHg 59%
    19:00 +13°C° 0 mm 1 mps 718 mmHg 65%
    20:00 +12°C° 0 mm 1 mps 718 mmHg 67%
    21:00 +12°C° 0 mm 2 mps 719 mmHg 69%
    22:00 +10°C° 0 mm 2 mps 719 mmHg 72%
    23:00 +10°C° 0 mm 2 mps 719 mmHg 78%

    24 March, Sunday

    Time Temperature Precipitation Wind Pressure Humidity
    00:00 +9°C° 0 mm 3 mps 719 mmHg 85%
    01:00 +8°C° 0 mm 3 mps 719 mmHg 91%
    02:00 +7°C° 0.1 mm 3 mps 719 mmHg 91%
    03:00 +7°C° 0.1 mm 3 mps 719 mmHg 91%
    04:00 +5°C° 0.1 mm 3 mps 719 mmHg 90%
    05:00 +5°C° 0.1 mm 3 mps 719 mmHg 90%
    06:00 +6°C° 0.1 mm 2 mps 719 mmHg 90%
    07:00 +5°C° 0.1 mm 2 mps 719 mmHg 89%
    08:00 +6°C° 0 mm 2 mps 719 mmHg 87%
    09:00 +6°C° 0 mm 2 mps 719 mmHg 84%
    10:00 +7°C° 0 mm 1 mps 718 mmHg 82%
    11:00 +7°C° 0 mm 1 mps 718 mmHg 80%
    12:00 +8°C° 0 mm 1 mps 718 mmHg 79%
    13:00 +9°C° 0 mm 1 mps 717 mmHg 77%
    14:00 +9°C° 0 mm 1 mps 717 mmHg 76%
    15:00 +9°C° 0 mm 1 mps 716 mmHg 75%
    16:00 +9°C° 0 mm 2 mps 716 mmHg 75%
    17:00 +9°C° 0 mm 1 mps 716 mmHg 78%
    18:00 +8°C° 0 mm 1 mps 715 mmHg 82%
    19:00 +7°C° 0 mm 1 mps 715 mmHg 85%
    20:00 +7°C° 0 mm 1 mps 715 mmHg 85%
    21:00 +6°C° 0 mm 0 mps 715 mmHg 86%
    22:00 +5°C° 0 mm 0 mps 714 mmHg 86%
    23:00 +6°C° 0.2 mm 1 mps 714 mmHg 86%

    25 March, Monday

    Time Temperature Precipitation Wind Pressure Humidity
    00:00 +6°C° 0.2 mm 1 mps 714 mmHg 87%
    01:00 +4°C° 0.2 mm 2 mps 713 mmHg 87%
    02:00 +4°C° 0.5 mm 2 mps 713 mmHg 88%
    03:00 +4°C° 0.5 mm 2 mps 713 mmHg 89%
    04:00 +3°C° 0.5 mm 2 mps 713 mmHg 90%
    05:00 +3°C° 0 mm 2 mps 713 mmHg 88%
    06:00 +2°C° 0 mm 3 mps 713 mmHg 86%
    07:00 +2°C° 0 mm 3 mps 713 mmHg 84%
    08:00 +3°C° 0 mm 3 mps 714 mmHg 76%
    09:00 +4°C° 0 mm 4 mps 714 mmHg 69%
    10:00 +5°C° 0 mm 4 mps 714 mmHg 61%
    11:00 +5°C° 0.1 mm 5 mps 714 mmHg 59%
    12:00 +6°C° 0.1 mm 5 mps 713 mmHg 58%
    13:00 +5°C° 0.1 mm 6 mps 713 mmHg 56%
    14:00 +5°C° 0 mm 6 mps 713 mmHg 55%
    15:00 +5°C° 0 mm 7 mps 712 mmHg 53%
    16:00 +5°C° 0 mm 7 mps 712 mmHg 51%
    17:00 +4°C° 0.1 mm 7 mps 712 mmHg 57%
    18:00 +3°C° 0.1 mm 7 mps 711 mmHg 62%
    19:00 +2°C° 0.1 mm 7 mps 711 mmHg 68%
    20:00 +1°C° 0.1 mm 6 mps 711 mmHg 69%
    21:00 -1°C° 0.1 mm 6 mps 711 mmHg 71%
    22:00 -1°C° 0.1 mm 5 mps 712 mmHg 73%
    23:00 -2°C° 0 mm 6 mps 711 mmHg 73%

    26 March, Tuesday

    Time Temperature Precipitation Wind Pressure Humidity
    00:00 -3°C° 0 mm 6 mps 711 mmHg 74%
    01:00 -3°C° 0 mm 6 mps 711 mmHg 74%
    02:00 -3°C° 0 mm 7 mps 711 mmHg 73%
    03:00 -3°C° 0 mm 7 mps 711 mmHg 72%
    04:00 -4°C° 0 mm 8 mps 711 mmHg 70%
    05:00 -4°C° 0 mm 8 mps 711 mmHg 70%
    06:00 -4°C° 0 mm 9 mps 711 mmHg 69%
    07:00 -5°C° 0 mm 9 mps 711 mmHg 69%
    08:00 -5°C° 0.3 mm 9 mps 711 mmHg 66%
    09:00 -5°C° 0.3 mm 10 mps 711 mmHg 64%
    10:00 -5°C° 0.3 mm 10 mps 712 mmHg 61%
    11:00 -4°C° 0.1 mm 10 mps 712 mmHg 58%
    12:00 -3°C° 0.1 mm 10 mps 713 mmHg 54%
    13:00 -3°C° 0.1 mm 10 mps 713 mmHg 51%
    14:00 -3°C° 0 mm 10 mps 714 mmHg 51%
    15:00 -3°C° 0 mm 9 mps 714 mmHg 51%
    16:00 -3°C° 0 mm 9 mps 714 mmHg 51%
    17:00 -4°C° 0 mm 8 mps 715 mmHg 55%
    18:00 -3°C° 0 mm 7 mps 716 mmHg 59%
    19:00 -4°C° 0 mm 6 mps 716 mmHg 62%
    20:00 -5°C° 0 mm 6 mps 717 mmHg 64%
    21:00 -5°C° 0 mm 6 mps 717 mmHg 65%
    22:00 -6°C° 0 mm 6 mps 717 mmHg 66%
    23:00 -6°C° 0 mm 6 mps 717 mmHg 67%
    Show more